Location: Splawn
(30.9202°N, 96.9858°W)
Time: 21:34:53
(UTC+00:00)

Transit 2A Rocket - Pass Details

Date: 06 March 2020
Orbit: 588 x 915 km, 66.7° (Epoch: 09 April)

Event Time Altitude Azimuth Distance (km) Brightness Sun altitude
Rises 10:55:13 0° 336° (NNW) 3,261 - -25.0°
Reaches altitude 10° 10:57:33 10° 338° (NNW) 2,378 - -24.5°
Exits shadow 10:57:37 10° 338° (NNW) 2,354 7.4 -24.5°
Maximum altitude 11:03:05 77° 65° (ENE) 874 5.3 -23.3°
Drops below altitude 10° 11:09:01 10° 151° (SSE) 2,547 7.9 -22.0°
Sets 11:11:35 0° 153° (SSE) 3,508 8.7 -21.5°
